Estación meteorológica de Museu de l'Esquerda (Osona, Plana de Vic)

Consulta los datos en tiempo real de la estación meteorológica de Museu de l'Esquerda





Hora UTC 12:55
Temperatura 16.1 ºC
Humedad 76.0 %
Presión 1012.8 hPa
Pluja 0.0 mm
Velocidad viento 3.2 km/h
Dirección viento ENE
Radiación solar 176.0 W/m²

Datos diarios 2026-05-09



Hora UTC (invierno +1h; verano +2h)
Temperatura (ºC) Humedad (%) Presión (hPa) Velocidad viento (km/h) Precipitación (mm) Radiación solar (W/m²)
Hora UTC Aire Humedad Presión Vel. Dir. Vel. Max Dir. Intent. máx 5 min. Rad. Sol.
00:05 9.8 90.0 1016.3 0.0 SSW 0.0 0.0 0.0
00:10 9.8 90.0 1016.3 0.0 SSW 0.0 0.0 0.0
00:15 9.7 90.0 1016.2 0.0 SSW 0.0 0.0 0.0
00:20 9.7 90.0 1016.3 0.0 SSW 0.0 0.0 0.0
00:25 9.6 90.0 1016.4 0.0 SSW 0.0 0.0 0.0
00:30 9.6 90.0 1016.3 0.0 SSW 0.0 0.0 0.0
00:35 9.5 90.0 1016.2 0.0 SSW 0.0 0.0 0.0
00:40 9.4 91.0 1016.2 0.0 SSW 0.0 0.0 0.0
00:45 9.4 90.0 1016.1 0.0 SSW 0.0 0.0 0.0
00:50 9.4 91.0 1016.3 0.0 SSW 0.0 0.0 0.0
00:55 9.4 91.0 1016.2 0.0 SSW 0.0 0.0 0.0
01:00 9.4 91.0 1016.1 0.0 SSW 0.0 0.0 0.0
01:05 9.4 91.0 1016.2 0.0 SSW 0.0 0.0 0.0
01:10 9.4 91.0 1016.1 0.0 SSW 0.0 0.0 0.0
01:15 9.4 91.0 1016.1 0.0 SSW 0.0 0.0 0.0
01:20 9.4 91.0 1016.1 0.0 SSW 0.0 0.0 0.0
01:25 9.5 91.0 1016.0 0.0 SSW 0.0 0.0 0.0
01:30 9.6 91.0 1016.0 0.0 SSW 0.0 0.0 0.0
01:35 9.6 91.0 1015.9 0.0 SSW 0.0 0.0 0.0
01:40 9.6 92.0 1015.9 0.0 SSW 0.0 0.0 0.0
01:45 9.7 92.0 1015.9 0.0 SSW 0.0 0.0 0.0
01:50 9.8 92.0 1015.8 0.0 SSW 0.0 0.0 0.0
01:55 9.8 92.0 1015.7 0.0 SSW 0.0 0.0 0.0
02:00 9.8 92.0 1015.8 0.0 SSW 0.0 0.0 0.0
02:05 9.9 92.0 1015.7 0.0 SSW 0.0 0.0 0.0
02:10 9.9 92.0 1015.7 0.0 SSW 0.0 0.0 0.0
02:15 9.9 92.0 1015.5 0.0 SSW 0.0 0.0 0.0
02:20 9.9 92.0 1015.5 0.0 SSW 0.0 0.0 0.0
02:25 9.9 92.0 1015.5 0.0 SSW 0.0 0.0 0.0
02:30 9.9 92.0 1015.4 0.0 SSW 1.6 0.0 0.0
02:35 9.9 92.0 1015.4 0.0 SSW 1.6 0.0 0.0
02:40 9.9 92.0 1015.3 0.0 SSW 1.6 0.0 0.0
02:45 9.8 92.0 1015.3 0.0 SSW 1.6 0.0 0.0
02:50 9.8 92.0 1015.2 0.0 SSW 1.6 0.0 0.0
02:55 9.7 92.0 1015.2 0.0 SSW 0.0 0.0 0.0
03:00 9.6 92.0 1015.1 0.0 SSW 0.0 0.0 0.0
03:05 9.5 92.0 1015.0 0.0 SSW 0.0 0.0 0.0
03:10 9.4 92.0 1015.1 0.0 SSW 0.0 0.0 0.0
03:15 9.3 91.0 1015.0 3.2 SSW 4.8 0.0 0.0
03:20 9.2 92.0 1015.0 0.0 SSW 4.8 0.0 0.0
03:25 9.1 92.0 1014.9 0.0 SSW 3.2 0.0 0.0
03:30 9.0 92.0 1014.9 3.2 SSW 3.2 0.0 0.0
03:35 8.9 92.0 1015.1 1.6 SSW 4.8 0.0 0.0
03:40 8.9 92.0 1014.9 1.6 SSW 4.8 0.0 0.0
03:45 8.9 92.0 1014.9 3.2 SSW 4.8 0.0 0.0
03:50 8.9 92.0 1014.9 3.2 S 8.0 0.0 0.0
03:55 8.9 92.0 1015.0 4.8 S 8.0 0.0 0.0
04:00 8.9 92.0 1015.0 0.0 S 6.4 0.0 0.0
04:05 8.9 92.0 1014.9 1.6 S 8.0 0.0 0.0
04:10 8.9 92.0 1014.8 3.2 SSE 8.0 0.0 0.0
04:15 8.8 92.0 1014.8 1.6 SSE 4.8 0.0 0.0
04:20 8.8 92.0 1014.9 1.6 SSE 4.8 0.0 0.0
04:25 8.8 92.0 1014.8 1.6 SSE 4.8 0.0 0.0
04:30 8.8 92.0 1014.9 0.0 SSE 4.8 0.0 0.0
04:35 8.8 92.0 1014.9 0.0 SSE 3.2 0.0 0.0
04:40 8.8 92.0 1015.1 0.0 SSE 0.0 0.0 0.0
04:45 8.8 92.0 1015.1 0.0 SSE 0.0 0.0 0.0
04:50 8.8 92.0 1015.1 0.0 SSE 0.0 0.0 5.0
04:55 8.8 92.0 1015.1 0.0 SSE 0.0 0.0 7.0
05:00 8.9 92.0 1015.3 0.0 SSE 0.0 0.0 9.0
05:05 8.9 92.0 1015.1 0.0 SSE 0.0 0.0 12.0
05:10 9.1 92.0 1015.2 0.0 SSE 0.0 0.0 16.0
05:15 9.1 92.0 1015.2 0.0 SSE 0.0 0.0 19.0
05:20 9.2 92.0 1015.2 0.0 SSE 0.0 0.0 23.0
05:25 9.2 93.0 1015.1 0.0 S 0.0 0.0 28.0
05:30 9.3 93.0 1015.1 1.6 NNW 4.8 0.0 37.0
05:35 9.4 93.0 1015.5 0.0 NNW 4.8 0.0 39.0
05:40 9.5 93.0 1015.4 0.0 NNW 1.6 0.0 33.0
05:45 9.5 93.0 1015.5 0.0 NNW 0.0 0.0 32.0
05:50 9.6 93.0 1015.5 0.0 NNW 0.0 0.0 35.0
05:55 9.6 93.0 1015.3 0.0 NNW 0.0 0.0 46.0
06:00 9.7 93.0 1015.3 0.0 NNW 0.0 0.0 62.0
06:05 9.8 93.0 1015.3 0.0 NNW 3.2 0.0 62.0
06:10 9.9 93.0 1015.3 0.0 NNW 3.2 0.0 69.0
06:15 10.1 93.0 1015.1 0.0 NNW 1.6 0.0 79.0
06:20 10.2 93.0 1015.2 0.0 NNW 0.0 0.0 86.0
06:25 10.3 93.0 1015.2 0.0 NNW 0.0 0.0 104.0
06:30 10.4 93.0 1015.2 0.0 NNW 0.0 0.0 114.0
06:35 10.6 93.0 1015.2 0.0 NNW 0.0 0.0 120.0
06:40 10.7 93.0 1015.1 0.0 NNW 0.0 0.0 160.0
06:45 11.0 93.0 1015.2 0.0 NNW 0.0 0.0 225.0
06:50 11.3 93.0 1015.1 0.0 NNW 0.0 0.0 174.0
06:55 11.6 93.0 1014.9 0.0 N 0.0 0.0 169.0
07:00 11.8 93.0 1014.9 0.0 NNW 0.0 0.0 185.0
07:05 11.9 92.0 1014.9 0.0 NNW 0.0 0.0 211.0
07:10 11.9 92.0 1014.7 0.0 NNW 0.0 0.0 214.0
07:15 12.2 92.0 1014.7 0.0 NNW 0.0 0.0 211.0
07:20 12.4 92.0 1014.6 0.0 NNW 0.0 0.0 236.0
07:25 12.3 90.0 1014.6 4.8 NW 4.8 0.0 237.0
07:30 12.7 90.0 1014.6 0.0 NW 6.4 0.0 244.0
07:35 12.9 88.0 1014.6 0.0 NW 1.6 0.0 251.0
07:40 13.1 88.0 1014.5 1.6 NW 3.2 0.0 262.0
07:45 13.1 86.0 1014.6 1.6 NW 4.8 0.0 255.0
07:50 13.3 86.0 1014.6 0.0 NW 4.8 0.0 292.0
07:55 13.4 86.0 1014.5 0.0 NW 3.2 0.0 339.0
08:00 13.9 86.0 1014.5 0.0 NW 3.2 0.0 352.0
08:00 13.8 84.0 1014.3 0.0 N 3.2 0.0 364.0
08:10 13.9 83.0 1014.1 0.0 N 0.0 0.0 373.0
08:15 14.3 83.0 1014.0 0.0 N 6.4 0.0 443.0
08:20 14.8 84.0 1013.7 1.6 N 6.4 0.0 487.0
08:25 14.9 80.0 1013.6 0.0 N 6.4 0.0 501.0
08:30 15.3 83.0 1013.6 1.6 N 6.4 0.0 443.0
08:35 15.7 79.0 1013.7 0.0 N 3.2 0.0 418.0
08:40 15.8 79.0 1013.7 0.0 N 4.8 0.0 436.0
08:45 16.1 77.0 1013.8 0.0 N 4.8 0.0 468.0
08:50 16.5 77.0 1013.9 0.0 N 3.2 0.0 457.0
08:55 16.8 79.0 1014.1 0.0 N 3.2 0.0 422.0
09:00 16.9 77.0 1014.0 3.2 N 6.4 0.0 471.0
09:05 17.1 75.0 1013.9 0.0 N 6.4 0.0 441.0
09:10 17.5 74.0 1013.7 4.8 N 6.4 0.0 415.0
09:15 17.5 75.0 1013.8 1.6 N 14.5 0.0 469.0
09:20 17.7 74.0 1013.7 0.0 N 14.5 0.0 396.0
09:25 17.7 73.0 1013.8 6.4 N 12.9 0.0 448.0
09:30 17.8 74.0 1013.7 1.6 N 8.0 0.0 448.0
09:35 17.8 72.0 1014.0 0.0 N 14.5 0.0 355.0
09:40 17.7 73.0 1014.1 0.0 N 14.5 0.0 359.0
09:45 17.7 72.0 1014.1 0.0 N 12.9 0.0 330.0
09:50 17.8 74.0 1014.2 1.6 N 9.7 0.0 338.0
09:55 17.7 72.0 1014.1 0.0 N 12.9 0.0 396.0
10:00 17.7 72.0 1014.2 0.0 N 12.9 0.0 378.0
10:05 17.8 73.0 1014.2 0.0 N 9.7 0.0 432.0
10:10 17.9 72.0 1014.3 0.0 N 6.4 0.0 311.0
10:15 17.8 70.0 1014.3 0.0 N 8.0 0.0 283.0
10:20 17.7 72.0 1014.3 8.0 N 14.5 0.0 276.0
10:25 17.5 71.0 1014.2 4.8 N 14.5 0.0 276.0
10:30 17.4 71.0 1014.1 1.6 N 12.9 0.0 230.0
10:35 17.3 71.0 1014.0 3.2 E 12.9 0.0 229.0
10:40 17.2 73.0 1014.1 0.0 SSE 9.7 0.0 241.0
10:45 17.2 71.0 1014.2 3.2 ESE 9.7 0.0 199.0
10:50 17.1 72.0 1014.1 0.0 SE 14.5 0.0 172.0
10:55 16.9 72.0 1014.1 4.8 SE 12.9 0.0 190.0
11:00 16.9 74.0 1014.1 3.2 SE 12.9 0.0 190.0
11:05 16.8 73.0 1014.1 3.2 ESE 12.9 0.0 163.0
11:10 16.7 72.0 1014.0 1.6 E 12.9 0.0 169.0
11:15 16.7 73.0 1014.1 0.0 ESE 12.9 0.0 114.0
11:20 16.6 73.0 1014.1 0.0 SE 9.7 0.0 130.0
11:25 16.7 73.0 1013.9 11.3 E 11.3 0.0 111.0
11:30 16.6 72.0 1014.0 0.0 E 11.3 0.0 86.0
11:35 16.6 72.0 1014.0 0.0 ESE 6.4 0.0 79.0
11:40 16.6 73.0 1014.1 0.0 ESE 3.2 0.0 79.0
11:45 16.5 73.0 1014.2 0.0 ESE 0.0 0.0 79.0
11:50 16.6 74.0 1014.1 0.0 SE 11.3 0.0 93.0
11:55 16.4 74.0 1014.0 0.0 SSE 11.3 0.0 100.0
12:00 16.4 74.0 1014.0 0.0 ENE 4.8 0.0 90.0
12:05 16.3 74.0 1014.0 4.8 ENE 4.8 0.0 98.0
12:10 16.3 74.0 1013.9 4.8 SSE 11.3 0.0 104.0
12:15 16.2 74.0 1013.8 0.0 E 11.3 0.0 111.0
12:20 16.2 75.0 1013.6 0.0 SE 12.9 0.0 134.0
12:25 16.1 76.0 1013.5 0.0 E 12.9 0.0 176.0
12:30 16.2 77.0 1013.2 3.2 E 11.3 0.0 211.0
12:35 16.2 76.0 1013.4 3.2 E 9.7 0.0 156.0
12:40 16.2 76.0 1013.2 0.0 NE 14.5 0.0 148.0
12:45 16.2 76.0 1013.2 0.0 NE 14.5 0.0 146.0
12:50 16.2 76.0 1012.8 4.8 NE 8.0 0.0 151.0
12:55 16.1 76.0 1012.8 3.2 ENE 8.0 0.0 176.0
Máxima 17.9 93.0 1016.4 11.3 E 14.5 0.0 501.0
Mínima 8.8 70.0 1012.8
Total 0.0